Current Conditions

Updated: 17-Jan-2018 10:02 PM  
Summary / Temperature Wind Rain






Feels like: 52°F

1-hour difference
0.6°F 0.6°F colder than last hour.

24-hour difference
1.6°F1.6°F warmer than yesterday at this time.

  Today Yesterday
High: 60.4°F
1:53 PM
56.1°F
3:16 PM
Low: 48.0°F
7:21 AM
45.9°F
12:40 AM
Wind from W W
0.2
Gust:  1.0 mph
0 Beaufort - Calm

Today: 5.0 - 2:32 PM
Month: 11.5 mph - Jan 10
Rain Today: 0.01 in
Current Rate (/hr): 0.000 in
Max Rate (/hr):
Rain Yesterday: 0.01 in
Storm Rain: 0.00 in
This Month: 0.81 in
Season Total: 1.55 in
Last Rain Event: Today
Humidity / Barometer Sun / Moon
Humidity: 94 Increased 1.0% in the last hour.
Dew Point: 50.7°F Decreased 0.3°F in the last hour.
Barometer: 30.214 inHg  
Baro Trend: Steady
Sunrise: 7:06 AM
Sunset: 5:07 PM
Moonrise: 8:06 AM
Moonset: 5:51 PM
Sky Conditions UV Index
Summary: Mist, Overcast
Visibility: 2 ½ miles
Clouds: Overcast @ 600 ft
KVIS - 9:56 PM PST
Current: 0.0  None 
Thursday: 2.4  Low 
Friday: 2.3  Low 
Air Quality Fire Danger
 Unhealthy for Sensitive Groups 
Ozone 14 ppb
PM 2.5 44 μg/m3
10:00 PM PST
Current: 0  Low 

Local Alerts Local Forecast
Local NWS Alerts
Tonight

Partly
Cloudy
Low 41
Thu

Rain
Showers
High 64
Thu night

Chance of
Rain
Low 44
Fri

Chance of
Rain
High 56
Fri night

Rain
Showers
Low 34
Sat

Partly
Cloudy
High 54
Sat night

Partly
Cloudy
Low 32

Local Radar Local Satellite Neighborhood Cam Sky Cam
Local Radar Local Satellite Neighborhood Cam Sky Cam


Nearby Personal Stations

Weather Underground PWS KCAEXETE7     Weather Underground PWS KCAEXETE6     Weather Underground PWS KCAEXETE11

Nearby Airport Stations

KVIS - Visalia, California, USA
Distance from station: W 14mi, 23km
Updated: Wed, 17-Jan-2018 9:56pm PST
Mist, Overcast
Mist, Overcast
 Wind from calm
Wind: Calm
Temperature: 52°F , 11°C
Dew Point: 50°F , 10°C
Humidity: 94%
Barometer: 30.22 inHg , 1023.4 hPa
Summary: Mist
Clouds: Overcast
Visibility: 2 1/2 miles , 2 km
Cloud details: Overcast 600 ft
2018/01/18 05:56 KVIS 180556Z AUTO 00000KT 2 1/2SM BR OVC006 11/10 A3022 RMK AO2 SLP243 T01110100 10122 20106 55000
KPTV - Porterville, California, USA
Distance from station: SSE 19mi, 31km
Updated: Wed, 17-Jan-2018 9:56pm PST
Mist, Overcast
Mist, Overcast
 Wind from NW
Wind: NW 5 mph , 7 km/h
Temperature: 52°F , 11°C
Dew Point: 50°F , 10°C
Humidity: 94%
Barometer: 30.22 inHg , 1023.4 hPa
Summary: Mist
Clouds: Overcast
Visibility: 2 1/2 miles , 2 km
Cloud details: Overcast 500 ft
2018/01/18 05:56 KPTV 180556Z AUTO 32004KT 2 1/2SM BR OVC005 11/10 A3022 RMK AO2 SLP249 T01110100 10122 20100 53003

Metar display script from Saratoga-Weather.org



Visitor Map